Location: Isle of Man Observatory
(54.1776°N, 4.6264°W)
Time: 14:14:01
(UTC+02:00)

ARIANE 6 FM1 Upper Stage - Pass Details

Date: 17 April 2026
Orbit: 526 x 601 km, 62.0° (Epoch: 19 May)

Event Time Altitude Azimuth Distance (km) Brightness Sun altitude
Rises 02:51:23 0° 307° (NW) 2,682 6.5 -25.0°
Reaches altitude 10° 02:53:36 10° 308° (NW) 1,783 5.5 -25.0°
Enters shadow 02:56:20 42° 314° (NW) 763 3.5 -24.9°
